Location: Le Petit-Vavre
(46.5081°N, 1.5239°E)
Time: 16:55:47
(UTC+00:00)

Gbstr 26 Del rocket - Pass Details

Date: 03 March 2021
Orbit: 492 x 1264 km, 51.8° (Epoch: 14 April)

Event Time Altitude Azimuth Distance (km) Brightness Sun altitude
Rises 18:06:15 0° 261° (W) 2,702 9.1 -4.8°
Reaches altitude 10° 18:08:20 10° 265° (W) 1,879 7.5 -5.2°
Maximum altitude 18:12:31 56° 345° (NNW) 769 3.6 -5.9°
Drops below altitude 10° 18:17:38 10° 64° (ENE) 2,286 5.4 -6.8°
Enters shadow 18:18:35 - 66° (ENE) 2,653 5.7 -6.9°
